Location: Austin
(30.3000°N, 97.7500°W)
Time: 22:23:28
(UTC-06:00)

RUBIN 8/PSLV - Pass Details

Date: 03 December 2025
Orbit: 595 x 627 km, 98.1° (Epoch: 07 December)

Event Time Altitude Azimuth Distance (km) Brightness Sun altitude
Rises 05:53:11 0° 11° (N) 2,899 8.0 -16.7°
Reaches altitude 10° 05:55:23 10° 11° (N) 1,985 7.1 -16.2°
Maximum altitude 05:59:43 87° 282° (WNW) 619 4.5 -15.3°
Drops below altitude 10° 06:03:58 10° 194° (SSW) 1,953 7.2 -14.4°
Sets 06:06:07 0° 194° (SSW) 2,848 8.0 -14.0°
